Location: Newark
(41.0400°S, 62.7845°W)
Time: 17:56:30
(UTC+00:00)

ISS - Pass Details

Date: 23 October 2021
Orbit: 417 x 423 km, 51.6° (Epoch: 29 November)

Event Time Altitude Azimuth Distance (km) Brightness Sun altitude
Rises 23:31:39 0° 253° (WSW) 2,406 2.3 -9.6°
Reaches altitude 10° 23:34:23 10° 230° (SW) 1,543 0.5 -10.1°
Maximum altitude 23:36:36 16° 190° (S) 1,232 -0.9 -10.5°
Drops below altitude 10° 23:38:50 10° 150° (SSE) 1,548 -0.9 -10.9°
Enters shadow 23:41:46 -1° 126° (SE) 2,481 -0.1 -11.4°
